Weather History for Valladolid Airport, Spain

Change the Weather History Date:

Tuesday, November 6, 2012

  Actual Average Record
Temperature  
Mean Temperature 41 °F -  
Max Temperature 50 °F - - ()
Min Temperature 32 °F - - ()
Degree Days  
Heating Degree Days 24    
Moisture  
Dew Point 35 °F    
Average Humidity 80    
Maximum Humidity 100    
Minimum Humidity 58    
Precipitation  
Precipitation 0.00 in - - ()
Sea Level Pressure  
Sea Level Pressure 30.24 in    
Wind  
Wind Speed 9 mph ()    
Max Wind Speed 18 mph    
Max Gust Speed -    
Visibility 6.2 miles    
Events      
T = Trace of Precipitation, MM = Missing Value Source: Averaged Metar Reports

Daily Weather History Graph

Daily Weather History Graph

Search for Another Location

Airport:

Trip Planner

Search our weather history database for the weather conditions in past years. The results will help you decide how hot, cold, wet, or windy it might be!

Date:

Astronomy

Nov. 06, 2012 Rise Set
Actual Time 7:57 AM CET 6:07 PM CET
Civil Twilight 7:28 AM CET 6:36 PM CET
Nautical Twilight 6:55 AM CET 7:09 PM CET
Astronomical Twilight 6:23 AM CET 7:42 PM CET
Moon No Moon Rise 1:42 PM CET (11/6)
Length of Visible Light 11h 08m
Length of Day
10h 09m
Waning Gibbous, 56% of the Moon is Illuminated
Nov 6
Waning Gibbous
Nov 7
Last Quarter
Nov 13
New
Nov 20
First Quarter
Nov 28
Full

Hourly Weather History & Observations

Time (CET) Temp. Windchill Dew Point Humidity Pressure Visibility Wind Dir Wind Speed Gust Speed Precip Events Conditions
6:00 AM 33.8 °F 30.8 °F 33.8 °F 100% 30.15 in - North 3.5 mph - N/A   Clear
6:30 AM 33.8 °F 30.8 °F 33.8 °F 100% 30.15 in - North 3.5 mph - N/A   Clear
7:00 AM 33.8 °F 27.7 °F 32.0 °F 93% 30.15 in - NNE 6.9 mph - N/A   Clear
7:30 AM 32.0 °F 27.5 °F 32.0 °F 100% 30.15 in - NE 4.6 mph - N/A   Clear
8:00 AM 32.0 °F 24.8 °F 32.0 °F 100% 30.18 in - NE 8.1 mph - N/A   Clear
8:30 AM 32.0 °F 26.4 °F 32.0 °F 100% 30.18 in - NE 5.8 mph - N/A   Clear
9:00 AM 35.6 °F 32.8 °F 33.8 °F 93% 30.21 in - ENE 3.5 mph - N/A   Clear
9:30 AM 37.4 °F 34.9 °F 37.4 °F 100% 30.21 in - East 3.5 mph - N/A   Clear
10:00 AM 39.2 °F 34.2 °F 37.4 °F 93% 30.24 in - East 6.9 mph - N/A   Clear
10:30 AM 41.0 °F 33.9 °F 37.4 °F 87% 30.24 in - East 12.7 mph - N/A   Clear
11:00 AM 42.8 °F 35.8 °F 39.2 °F 87% 30.24 in - ENE 13.8 mph - N/A   Clear
11:30 AM 44.6 °F 37.2 °F 39.2 °F 81% 30.24 in 6.2 mi ENE 17.3 mph - N/A   Partly Cloudy
12:00 PM 44.6 °F 36.9 °F 39.2 °F 81% 30.24 in 6.2 mi ENE 18.4 mph - N/A   Scattered Clouds
12:30 PM 46.4 °F 39.5 °F 39.2 °F 76% 30.24 in 6.2 mi ENE 17.3 mph - N/A   Scattered Clouds
1:00 PM 46.4 °F 39.2 °F 37.4 °F 71% 30.24 in 6.2 mi ENE 18.4 mph - N/A   Scattered Clouds
1:30 PM 46.4 °F 39.5 °F 37.4 °F 71% 30.24 in 6.2 mi ENE 17.3 mph - N/A   Scattered Clouds
2:00 PM 48.2 °F - 37.4 °F 66% 30.24 in 6.2 mi ENE 16.1 mph - N/A   Scattered Clouds
2:30 PM 48.2 °F - 37.4 °F 66% 30.24 in 6.2 mi ENE 16.1 mph - N/A   Scattered Clouds
3:00 PM 48.2 °F - 35.6 °F 62% 30.24 in 6.2 mi ENE 15.0 mph - N/A   Scattered Clouds
3:30 PM 50.0 °F - 35.6 °F 58% 30.24 in 6.2 mi ENE 16.1 mph - N/A   Partly Cloudy
4:00 PM 48.2 °F - 33.8 °F 58% 30.24 in 6.2 mi NE 18.4 mph - N/A   Partly Cloudy
4:30 PM 48.2 °F - 35.6 °F 62% 30.24 in 6.2 mi ENE 17.3 mph - N/A   Partly Cloudy
5:00 PM 48.2 °F - 33.8 °F 58% 30.24 in 6.2 mi ENE 15.0 mph - N/A   Partly Cloudy
5:30 PM 46.4 °F 40.4 °F 33.8 °F 62% 30.24 in - ENE 13.8 mph - N/A   Clear
6:00 PM 44.6 °F 37.8 °F 32.0 °F 61% 30.24 in - ENE 15.0 mph - N/A   Clear
6:30 PM 42.8 °F 35.8 °F 35.6 °F 76% 30.27 in - NE 13.8 mph - N/A   Clear
7:00 PM 41.0 °F 33.1 °F 35.6 °F 81% 30.27 in - ENE 15.0 mph - N/A   Clear
7:30 PM 41.0 °F 33.1 °F 35.6 °F 81% 30.27 in - ENE 15.0 mph - N/A   Clear
8:00 PM 39.2 °F 31.2 °F 33.8 °F 81% 30.30 in - ENE 13.8 mph - N/A   Clear
8:30 PM 39.2 °F 32.5 °F 33.8 °F 81% 30.30 in - ENE 10.4 mph - N/A   Clear
9:00 PM 39.2 °F 31.6 °F 33.8 °F 81% 30.30 in - ENE 12.7 mph - N/A   Clear
9:30 PM 39.2 °F 30.2 °F 33.8 °F 81% 30.30 in - ENE 17.3 mph - N/A   Clear
10:00 PM 37.4 °F 28.2 °F 33.8 °F 87% 30.30 in - ENE 16.1 mph - N/A   Clear